Location: Nashville
(36.1660°N, 86.7840°W)
Time: 20:12:01
(UTC-06:00)

Vanguard 2 - Visible Passes

Search period start: 22 January 2022 00:00
Search period end: 01 February 2022 00:00
Orbit: 553 x 2936 km, 32.9° (Epoch: 22 January)

Date Brightness Start Highest point End Pass type
(mag) Time Alt. Az. Time Alt. Az. Time Alt. Az.
22 Jan 11.8 00:48:04 14° ESE 00:48:04 14° ESE 00:49:29 10° ESE visible
22 Jan 10.7 02:49:28 42° SSE 02:49:28 42° SSE 02:59:45 10° SE visible
22 Jan 11.1 04:50:52 21° WSW 04:54:29 22° SW 05:05:01 10° S visible
22 Jan 10.2 18:12:11 10° S 18:17:42 20° SE 18:22:24 15° ESE visible
22 Jan 9.6 20:16:47 10° SW 20:23:47 51° S 20:23:47 51° S visible
22 Jan 11.3 22:24:47 10° W 22:25:11 12° W 22:25:11 12° W visible
23 Jan 11.7 01:04:48 16° ESE 01:04:48 16° ESE 01:07:09 10° ESE visible
23 Jan 10.8 03:06:11 38° S 03:06:11 38° S 03:16:36 10° SSE visible
23 Jan 11.3 05:07:35 14° WSW 05:11:35 15° SW 05:19:26 10° SSW visible
23 Jan 9.9 18:28:21 10° SSW 18:34:41 28° SE 18:39:04 21° ESE visible
23 Jan 9.7 20:34:06 10° WSW 20:40:27 51° SSW 20:40:27 51° SSW visible
24 Jan 11.6 01:21:31 18° SE 01:21:31 18° SE 01:24:39 10° SE visible
24 Jan 10.9 03:22:55 32° SSW 03:22:55 32° SSW 03:33:05 10° SSE visible
24 Jan 9.6 18:45:01 10° SSW 18:51:47 36° SE 18:55:42 28° ESE visible
24 Jan 9.8 20:51:33 10° WSW 20:57:05 46° SW 20:57:05 46° SW visible
25 Jan 11.5 01:38:15 20° SE 01:38:15 20° SE 01:41:55 10° SE visible
25 Jan 11.1 03:39:39 26° SSW 03:39:39 26° SSW 03:49:04 10° S visible
25 Jan 9.3 19:01:58 10° SW 19:09:02 45° SSE 19:12:19 36° ESE visible
25 Jan 10.1 21:09:05 10° WSW 21:13:42 38° WSW 21:13:42 38° WSW visible
26 Jan 11.5 01:54:57 20° SSE 01:54:57 20° SSE 01:58:57 10° SE visible
26 Jan 11.3 03:56:22 20° SSW 03:56:22 20° SSW 04:04:21 10° S visible
26 Jan 9.1 19:19:09 10° SW 19:26:25 55° SSE 19:28:54 46° ESE visible
26 Jan 10.4 21:26:40 10° W 21:30:18 30° WSW 21:30:18 30° WSW visible
27 Jan 11.5 02:11:40 19° SSE 02:11:40 19° SSE 02:15:39 10° SSE visible
27 Jan 11.5 04:13:03 14° SW 04:13:03 14° SW 04:18:09 10° SSW visible
27 Jan 9.6 17:30:54 10° SSW 17:35:48 24° SE 17:42:48 10° E visible
27 Jan 9.0 19:36:29 10° WSW 19:43:56 64° SSE 19:45:29 58° SE visible
27 Jan 10.7 21:44:17 10° W 21:46:52 23° W 21:46:52 23° W visible
28 Jan 11.5 02:28:20 17° S 02:28:20 17° S 02:31:56 10° SSE visible
28 Jan 9.3 17:47:35 10° SSW 17:52:56 33° SE 18:00:39 11° E visible
28 Jan 8.9 19:53:56 10° WSW 20:01:33 70° SSE 20:02:02 69° SSE visible
28 Jan 10.9 22:01:54 10° W 22:03:25 17° W 22:03:25 17° W visible
29 Jan 11.6 02:44:58 15° S 02:44:58 15° S 02:47:40 10° S visible
29 Jan 9.0 18:04:35 10° SW 18:10:12 43° SSE 18:17:12 16° E visible
29 Jan 9.0 20:11:26 10° WSW 20:18:35 72° SSW 20:18:35 72° SSW visible
29 Jan 11.2 22:19:33 10° W 22:19:57 12° W 22:19:57 12° W visible
30 Jan 11.7 03:01:33 11° S 03:01:33 11° S 03:02:27 10° S visible
30 Jan 8.8 18:21:48 10° SW 18:27:36 53° SSE 18:33:43 21° E visible
30 Jan 9.2 20:28:59 10° W 20:35:06 61° WSW 20:35:06 61° WSW visible
31 Jan 8.6 18:39:09 10° WSW 18:45:06 62° SSE 18:50:16 28° E visible
31 Jan 9.5 20:46:34 10° W 20:51:38 48° WSW 20:51:38 48° WSW visible
